Theta_e
294 284 283 281 283 286 287 288 287 289 289 287 287 286 285 285 287 289 289 291 293 287 281 281 281 280 280 281 284 286 286 286 286 285 286 286 285 285 286 285 284 284 284 287 288 288 288 289 290 290 290 290 291 291 292 290 290 290 291 291 292 295 294 293 293 293 291 289 289 289 289 287 288 288 288 288 288 288 289 290 290 291 291 292 293 292
291 282 282 285 285 285 286 288 288 288 287 286 286 285 284 285 283 289 288 292 295 287 280 282 280 278 279 281 282 285 286 285 285 285 285 286 286 286 285 284 285 285 287 287 287 287 288 289 289 289 289 289 288 289 290 290 290 291 291 291 292 294 295 291 291 291 290 289 289 288 288 288 288 288 287 287 288 288 289 289 289 290 290 291 291 291
282 280 284 286 287 286 287 287 288 286 285 286 284 284 283 284 286 289 288 290 290 287 280 282 279 278 279 280 282 282 282 283 285 286 285 285 286 285 285 284 285 286 285 286 286 287 287 288 288 288 288 288 289 288 289 289 290 290 291 291 292 293 294 294 291 290 289 290 289 288 287 286 286 288 289 288 289 289 288 288 288 289 289 290 290 290
278 282 286 288 287 286 285 286 286 286 285 284 284 282 280 284 284 280 286 287 286 286 281 281 279 278 280 281 281 282 282 283 284 285 285 287 286 285 285 286 285 284 285 285 285 285 286 287 287 287 287 287 287 287 288 288 288 288 290 290 290 291 292 294 294 290 289 288 288 288 288 287 287 287 288 288 288 288 287 286 287 287 288 288 289 289
281 286 289 288 287 285 283 285 285 284 282 284 284 283 283 283 284 286 284 284 285 285 285 283 280 279 279 278 279 281 283 282 283 284 284 285 286 287 287 287 286 285 285 284 285 285 286 285 285 286 286 286 286 286 286 287 287 288 288 289 289 291 291 289 291 291 290 288 287 287 287 288 287 288 287 286 286 287 286 286 285 285 287 287 287 288
283 287 289 287 286 285 284 283 284 284 281 282 285 285 285 286 285 285 284 283 281 278 283 286 279 278 280 279 279 280 280 280 282 282 282 283 283 284 285 285 286 286 286 285 284 284 285 285 286 286 286 285 285 285 286 286 287 287 288 288 289 289 290 287 289 289 288 287 287 287 286 285 284 283 284 284 284 284 284 284 285 285 286 286 286 287
284 288 287 284 284 285 284 283 285 285 281 280 281 287 287 287 286 285 284 284 277 276 281 287 282 279 278 278 278 279 279 279 281 281 282 282 283 283 284 284 285 284 284 285 285 285 284 284 284 284 284 285 284 285 286 286 286 286 287 287 288 288 289 287 287 288 287 285 285 285 284 284 284 282 283 284 285 284 284 285 284 284 285 285 285 285
285 285 285 285 284 283 283 281 285 285 282 279 287 287 288 286 285 285 285 284 282 287 287 286 286 283 278 281 280 280 278 279 279 280 281 282 283 284 284 285 285 284 285 284 284 284 285 284 284 283 284 284 285 285 286 285 285 285 285 286 286 288 288 288 287 285 286 285 285 284 284 284 283 283 283 284 284 285 285 284 284 284 284 284 284 284
284 282 283 283 283 282 281 284 286 287 283 283 288 291 287 287 287 286 285 283 284 283 279 282 285 282 283 279 280 280 277 278 278 279 280 281 282 283 284 285 285 285 285 284 284 284 284 283 284 284 284 285 285 285 284 284 285 285 285 285 286 286 286 287 286 287 287 285 284 284 284 283 283 283 283 284 284 284 284 283 283 283 283 283 284 284
284 285 286 286 284 281 285 286 287 287 282 287 290 288 291 290 289 287 285 283 283 281 277 280 284 281 282 277 278 279 279 279 279 280 281 282 283 283 283 284 285 285 285 285 285 284 284 284 284 284 285 284 284 285 285 285 285 285 285 284 284 283 285 286 285 285 283 283 283 282 283 282 282 283 283 284 283 283 283 283 283 283 283 283 283 283
283 289 290 285 283 285 286 288 289 288 287 292 289 286 285 285 286 286 285 284 281 275 280 283 285 284 280 280 278 277 278 282 284 282 282 282 283 283 283 283 284 284 285 285 285 284 284 285 285 285 284 284 284 284 284 284 284 284 284 284 283 283 285 285 284 283 282 282 282 282 282 282 282 282 282 282 282 282 283 282 282 282 282 282 282 282
284 285 284 287 290 288 289 286 290 290 290 288 285 284 283 281 285 283 282 283 275 275 283 285 285 285 279 283 281 284 286 286 285 283 281 281 282 283 283 283 283 284 284 285 284 283 284 284 284 284 283 283 283 284 283 283 283 283 283 282 282 282 282 283 282 282 282 281 281 282 282 281 281 282 282 281 281 281 281 282 281 282 282 282 282 282
280 282 285 286 290 288 286 284 285 287 289 287 284 282 277 275 277 273 278 273 274 276 284 286 285 283 283 286 287 286 287 288 289 288 285 282 282 283 283 284 284 284 284 284 283 283 283 283 283 283 283 283 282 282 283 282 282 282 281 281 280 280 281 281 281 281 281 281 281 281 281 281 281 281 282 281 281 281 281 281 281 281 281 281 281 281
279 280 280 284 288 288 289 280 281 280 284 284 281 279 277 273 271 270 274 278 278 280 283 284 287 283 287 286 284 286 287 288 290 289 287 284 283 283 283 284 284 284 284 284 283 283 283 283 283 283 282 282 281 281 281 282 281 281 281 281 280 279 280 280 280 281 281 281 281 281 281 281 281 281 281 281 280 280 281 281 280 280 280 280 280 280
272 274 279 282 280 289 288 286 286 285 284 284 286 283 279 279 275 271 275 273 275 279 281 285 283 281 282 285 282 286 286 288 289 289 288 286 285 285 284 285 284 284 283 284 283 283 283 283 283 282 282 281 281 281 281 281 281 281 280 280 279 279 280 280 280 280 280 280 281 281 281 281 281 280 280 280 281 280 280 280 280 280 280 280 280 280
274 275 282 286 288 288 286 289 291 287 285 286 286 286 281 279 283 276 278 278 278 278 278 281 282 285 285 283 284 285 286 286 286 286 286 285 285 285 284 283 283 283 283 284 283 283 283 283 283 282 282 281 281 281 281 280 281 280 280 280 280 279 279 280 280 279 279 280 280 280 280 281 281 281 281 280 280 280 280 280 280 279 279 280 280 280
276 275 284 286 285 285 289 290 289 289 277 283 285 280 282 287 284 280 281 283 282 281 277 283 283 284 288 284 283 284 284 284 285 285 285 284 284 285 284 284 284 284 284 284 283 284 283 282 282 282 281 281 281 280 280 280 280 280 280 280 279 279 279 279 279 279 279 279 279 279 279 280 280 280 279 279 279 279 279 280 280 279 279 280 280 280
277 278 285 285 283 287 290 290 290 288 287 286 280 284 288 287 285 280 276 279 277 275 276 280 280 283 283 283 281 282 283 282 284 284 284 285 284 284 284 284 284 284 285 285 284 285 284 283 282 282 282 281 280 280 280 280 280 280 280 280 279 279 279 279 279 279 279 279 279 279 279 279 279 279 279 279 279 279 279 279 279 280 279 279 279 279
284 277 281 285 286 287 287 289 288 289 288 286 285 290 282 278 278 282 281 274 274 273 274 278 279 281 285 285 279 281 282 281 283 284 283 283 283 284 284 284 285 285 285 284 284 285 285 283 282 282 281 281 281 280 280 280 280 281 281 280 280 279 280 280 280 280 280 280 279 279 279 279 278 279 279 279 279 280 279 279 279 279 279 279 279 278
285 278 279 285 286 287 286 287 280 284 289 286 287 285 286 285 283 281 281 282 281 274 274 276 279 280 287 289 285 285 284 284 283 283 282 283 284 284 284 285 285 285 285 284 285 285 285 283 282 281 281 280 280 280 280 280 280 280 280 280 280 280 280 280 279 279 279 279 279 279 279 279 279 279 279 279 279 279 278 278 278 278 278 278 278 278
282 285 276 282 288 287 281 285 283 285 283 284 284 284 283 284 286 286 284 282 280 277 277 277 276 281 287 289 290 289 287 286 284 283 284 284 284 285 286 286 285 285 285 285 286 286 285 283 282 282 282 281 281 280 280 280 280 280 280 279 279 279 279 279 279 279 279 279 279 279 278 279 279 279 279 279 279 278 278 278 278 278 278 278 277 278
281 283 278 282 282 282 284 287 285 284 286 287 287 285 286 284 283 279 278 282 280 281 276 277 277 284 284 279 282 286 289 288 287 286 284 285 285 285 286 287 287 285 285 286 286 285 284 283 282 282 282 282 281 280 280 280 280 280 279 279 279 279 279 278 279 279 278 279 279 278 278 278 278 278 278 278 278 278 277 278 277 277 277 277 277 277
285 284 284 280 282 284 287 285 285 285 285 284 285 285 285 284 284 282 278 279 279 279 278 281 279 284 284 282 282 283 287 288 287 287 285 285 285 285 287 288 286 287 286 287 285 285 284 283 282 282 282 281 281 280 280 280 280 280 280 280 280 279 279 279 279 279 279 278 278 278 278 278 278 278 278 278 278 277 277 277 277 277 277 277 277 277
285 282 282 281 284 285 286 286 284 283 284 284 284 285 285 285 284 283 283 283 281 278 279 280 278 283 284 283 282 283 284 289 288 287 286 285 285 285 286 286 286 286 287 286 286 284 284 283 283 282 281 281 281 281 280 280 280 280 280 280 280 279 279 279 279 279 279 278 278 278 278 278 278 278 278 277 277 276 276 276 276 276 276 276 277 276
281 281 282 280 279 281 282 282 283 283 283 283 284 284 283 283 284 283 281 280 281 281 281 281 277 283 284 283 284 285 285 287 287 287 287 285 285 285 285 286 287 287 286 286 284 283 283 282 282 281 282 282 282 282 281 280 280 280 280 280 280 280 280 280 280 279 279 278 278 278 277 277 277 277 277 277 277 276 276 276 276 277 276 276 276 276
282 281 281 278 275 274 273 275 279 281 283 284 283 282 282 283 283 283 282 282 279 278 278 281 283 286 284 283 284 285 286 287 287 287 287 287 285 285 285 286 286 286 285 285 284 282 281 282 282 282 282 283 282 282 281 281 280 280 280 280 280 280 280 280 280 279 279 278 278 277 277 277 277 277 277 276 276 276 276 276 276 276 276 276 275 275
279 277 280 281 281 280 282 282 278 279 281 282 283 282 283 281 282 283 284 281 281 280 280 284 283 284 287 284 283 284 285 285 285 285 285 285 285 286 286 286 287 286 285 285 284 283 282 282 282 283 283 283 283 282 282 281 281 280 280 280 280 280 280 280 280 279 279 279 278 278 277 277 277 277 277 276 276 276 276 276 276 276 275 275 275 275
278 280 276 275 276 278 277 276 276 277 279 282 282 283 281 281 281 282 282 282 284 281 280 283 280 282 287 286 285 284 285 285 285 285 285 285 285 285 285 286 286 286 286 285 284 283 282 282 282 283 283 283 283 283 282 282 281 280 280 280 280 280 280 280 280 279 279 278 278 278 278 277 277 277 277 277 276 276 276 275 275 275 275 275 274 274
280 279 276 275 277 276 275 275 274 276 277 278 279 282 282 282 280 280 281 283 283 282 282 282 280 282 287 287 287 286 286 286 286 286 286 286 286 286 285 285 285 285 285 284 284 283 282 282 282 283 283 283 283 282 282 282 281 281 280 280 280 280 280 280 279 279 279 278 278 278 278 278 277 277 276 276 276 276 275 275 275 275 274 274 274 274
281 279 276 275 276 277 275 274 274 276 276 277 279 280 281 281 282 283 284 282 283 284 283 281 281 282 286 288 288 288 288 288 287 288 287 286 285 285 285 284 285 285 285 284 284 283 283 283 282 283 283 283 282 282 282 281 281 280 280 279 280 279 280 280 279 279 278 278 278 278 278 278 277 276 276 275 275 275 275 275 274 274 274 273 273 273
279 279 277 276 276 278 277 274 273 275 275 276 279 279 279 279 279 280 281 279 278 280 282 280 281 283 288 287 287 285 288 288 287 285 285 286 285 285 285 284 285 285 285 285 285 284 284 283 283 283 283 282 282 282 282 282 281 281 280 280 279 279 279 280 279 279 278 278 279 279 278 277 277 276 275 275 275 275 275 274 274 274 273 273 273 272
279 278 274 275 277 278 276 275 275 275 273 274 275 278 278 277 278 281 280 283 282 283 282 281 282 285 286 282 284 285 285 285 285 285 285 285 286 285 284 285 285 285 285 285 285 284 284 283 283 282 282 283 283 283 282 282 281 281 280 280 279 279 279 279 279 278 278 279 279 278 278 277 277 276 275 275 275 275 275 274 274 273 273 273 272 272
272 276 277 276 277 275 274 273 273 274 277 276 280 281 280 280 283 282 282 282 284 286 283 282 285 288 285 284 284 283 284 285 286 285 286 286 286 286 285 285 286 286 286 285 284 284 284 283 283 283 283 283 283 283 283 283 281 280 281 280 280 279 279 278 278 278 278 278 278 278 278 278 277 276 275 275 275 275 274 274 273 273 273 272 272 272
270 273 274 271 275 274 272 269 272 274 272 276 280 272 277 280 281 281 283 283 284 284 287 289 289 283 283 283 286 285 283 285 286 288 289 287 286 286 286 286 286 287 287 286 285 285 285 285 284 284 283 283 284 284 284 283 282 282 282 281 280 279 278 278 278 278 278 278 278 278 278 278 277 276 275 275 275 274 274 273 273 273 273 272 272 272
271 272 271 267 274 274 271 271 273 267 273 282 276 279 276 277 279 281 284 286 286 285 286 285 285 284 285 286 288 288 287 287 288 288 288 289 289 287 286 286 287 287 287 286 286 285 285 285 284 284 283 283 283 284 283 282 283 282 281 281 279 279 278 278 278 278 278 278 278 278 278 277 276 276 275 275 274 274 273 273 273 272 272 272 272 271
272 273 271 270 271 270 271 271 264 272 279 279 275 277 278 277 279 279 280 283 284 285 285 285 287 289 287 286 286 284 284 285 285 286 288 289 289 289 288 287 288 288 287 287 286 286 285 285 284 284 283 284 284 283 283 282 283 282 281 281 280 279 278 278 278 278 278 278 278 278 278 277 276 276 275 275 274 273 273 273 273 272 272 272 272 271
275 274 274 273 268 271 270 269 275 276 278 278 276 277 278 280 279 280 279 283 285 286 285 285 287 288 287 284 284 283 283 283 283 285 287 287 288 289 289 289 290 289 289 289 288 287 287 286 286 285 285 284 283 283 282 283 282 282 281 280 280 279 278 278 277 277 277 277 277 277 277 277 276 276 275 274 274 273 273 273 272 272 272 271 271 271
276 273 276 275 270 271 273 272 272 274 269 278 281 278 281 280 281 280 279 280 285 284 286 286 286 288 287 283 282 282 283 285 285 289 289 287 288 288 289 290 290 290 290 290 289 288 287 287 286 286 285 283 283 283 283 283 282 281 280 279 279 278 278 277 277 278 277 277 278 277 277 277 276 276 275 274 273 273 273 273 273 272 272 271 271 270
273 273 274 275 274 270 269 269 267 267 274 282 280 279 280 280 281 279 279 279 286 283 283 284 285 288 288 284 282 283 285 284 286 289 288 288 287 288 288 288 289 290 290 290 289 288 287 286 286 285 284 284 282 282 283 282 282 281 280 279 279 278 278 277 278 278 277 277 278 278 277 277 276 276 275 274 274 274 273 273 272 272 271 271 271 270
271 271 273 272 266 268 269 267 271 269 275 280 279 279 280 281 279 279 275 278 285 284 282 283 284 287 287 285 283 284 286 284 287 288 286 286 288 288 288 288 288 288 289 290 290 289 288 287 285 284 283 283 283 283 282 282 281 280 280 279 279 278 278 278 278 279 279 278 278 278 277 277 276 276 275 275 274 274 273 273 272 271 270 270 270 269
271 270 270 272 272 271 271 272 270 275 280 280 279 279 280 279 280 276 274 283 284 283 281 284 285 287 286 283 284 284 287 290 286 285 282 283 284 286 288 289 289 289 288 288 288 288 286 285 285 284 283 284 283 282 282 281 280 280 280 279 278 278 278 279 279 279 278 278 278 277 277 277 276 275 275 275 274 274 273 272 271 271 270 269 269 268
267 266 266 265 268 271 271 271 274 276 282 280 278 281 281 279 274 276 285 281 282 282 280 282 285 286 286 283 285 287 290 284 283 282 282 283 285 286 286 287 287 287 288 288 287 287 286 285 284 284 284 284 283 282 282 281 280 280 280 279 278 279 280 279 279 279 278 278 277 277 277 276 276 276 275 275 274 272 271 271 271 270 269 269 268 266
275 270 271 271 269 267 267 269 269 271 279 279 280 280 279 279 284 285 284 281 280 281 281 281 283 285 286 285 285 286 288 285 284 284 283 282 282 283 284 285 285 286 286 286 286 286 285 284 283 283 283 283 283 282 281 281 280 280 279 279 279 280 280 280 279 279 278 277 277 276 276 276 275 274 274 273 272 272 271 270 268 268 267 267 266 265
278 274 272 270 275 275 269 268 273 282 283 281 284 283 281 284 285 283 283 284 281 281 282 282 282 283 285 286 285 284 284 285 285 283 282 282 281 282 282 284 285 286 286 286 286 286 285 284 283 283 283 283 282 282 281 280 280 280 279 279 281 280 280 279 279 279 277 277 276 276 275 275 274 274 273 272 271 271 269 268 267 266 266 266 265 265
278 279 279 279 278 277 275 279 283 279 281 283 284 284 283 284 282 282 283 284 284 284 281 283 284 283 284 285 285 285 284 284 285 286 285 285 283 282 282 283 284 285 285 285 285 285 284 284 283 283 282 282 282 282 281 281 280 279 279 280 281 280 279 279 278 277 276 276 276 275 275 274 273 273 272 271 270 269 268 267 266 265 265 265 265 265
276 276 275 276 278 279 280 281 283 281 278 280 284 284 283 283 282 281 282 283 283 284 283 284 284 283 283 283 283 283 283 285 284 284 284 284 284 283 282 283 283 284 285 285 285 284 284 284 283 282 282 281 281 281 281 280 281 279 280 281 280 280 279 278 277 276 275 275 275 275 274 272 272 271 270 270 270 269 269 267 265 265 265 264 264 265
279 276 275 277 278 278 279 283 281 282 282 281 282 284 285 284 284 282 282 282 284 283 282 283 283 282 282 281 281 283 283 284 283 284 284 283 283 283 282 282 282 283 284 283 284 283 283 283 282 282 281 280 281 281 280 280 280 281 282 281 280 280 279 277 276 275 275 275 274 273 272 271 270 270 268 268 269 269 268 267 266 265 264 264 264 263
278 279 278 278 274 278 281 283 281 278 279 280 282 282 282 283 283 284 284 283 284 282 282 283 282 281 281 281 282 282 283 284 283 283 283 283 283 283 282 281 282 282 283 284 284 283 283 282 282 281 281 280 280 280 280 280 280 281 281 281 280 279 278 276 275 274 274 274 273 272 271 270 267 267 268 267 267 266 266 266 265 265 265 264 264 263
279 277 276 278 277 279 281 282 283 283 283 283 282 281 282 283 284 283 282 282 282 283 282 282 282 282 282 282 282 282 282 283 283 283 283 284 283 283 282 282 282 282 283 282 282 281 281 281 281 281 281 281 281 280 279 279 280 280 280 280 279 278 276 275 273 274 274 273 272 271 270 270 268 268 268 266 266 266 266 265 265 265 265 265 265 265
277 276 278 277 275 276 278 283 284 281 283 287 285 285 285 284 283 283 284 283 283 282 282 282 282 281 282 283 283 282 282 282 283 283 283 283 283 283 283 282 281 281 281 282 282 281 280 281 281 281 281 281 281 280 279 279 279 280 280 279 278 277 275 274 274 273 273 272 271 270 269 269 268 268 267 266 265 264 264 264 265 266 265 263 263 264
278 279 279 278 279 280 284 286 286 286 286 288 289 286 285 285 283 282 282 282 283 283 283 283 282 282 281 280 282 282 282 282 283 283 282 282 283 283 283 283 282 280 280 281 280 280 279 280 280 280 280 281 280 279 278 278 279 279 279 278 277 276 275 274 273 273 272 271 270 269 268 268 268 267 267 266 265 264 263 262 264 267 268 266 264 264
Wind_Speed
2 5 6 8 7 5 6 7 7 3 4 3 3 5 7 8 6 7 2 5 11 11 8 7 9 9 7 5 4 4 5 6 6 6 6 5 4 5 7 7 7 7 5 6 7 8 8 9 9 8 8 8 11 11 11 11 11 10 8 8 10 8 8 8 7 6 6 7 7 8 9 9 8 8 9 10 9 10 9 11 11 11 10 11 11 11
2 6 10 6 4 2 3 5 5 6 5 4 5 5 7 7 6 1 4 6 4 3 4 5 8 6 5 5 4 3 5 5 5 4 5 6 5 5 6 7 7 6 4 5 8 9 8 7 8 8 8 9 11 10 12 11 9 8 10 10 9 8 8 8 7 7 8 8 7 7 7 8 8 8 8 9 9 9 9 11 11 10 11 11 11 10
5 9 3 1 2 3 3 3 5 6 7 8 8 8 7 6 4 3 2 1 5 5 6 9 7 4 4 4 4 4 3 4 3 4 5 6 6 6 6 6 7 6 5 6 7 8 8 9 9 8 8 8 8 8 10 10 9 9 9 9 9 8 7 7 8 8 8 9 9 9 8 9 9 9 9 9 9 9 10 11 11 11 11 10 11 12
7 7 7 4 5 5 5 5 5 6 6 6 7 8 9 5 7 5 3 6 6 2 10 10 8 3 3 3 4 3 3 3 3 4 4 5 7 7 6 7 7 6 6 7 6 7 7 7 8 8 8 7 6 7 8 8 8 9 9 9 9 8 6 6 7 9 10 12 12 11 11 10 9 9 8 9 10 10 11 11 11 11 11 11 11 11
8 4 3 4 6 7 7 6 7 7 7 8 9 9 8 5 6 3 2 4 7 6 14 14 5 1 3 2 2 2 2 4 3 4 4 4 5 6 6 7 7 6 5 7 7 6 7 7 8 8 8 6 6 8 10 7 5 6 9 10 10 8 7 7 8 7 8 10 10 9 11 9 9 8 7 7 9 9 9 10 11 10 11 11 10 10
13 6 3 3 3 6 7 8 10 8 7 6 11 12 10 5 2 7 7 6 2 3 10 16 5 5 5 5 5 4 2 3 3 3 4 5 5 6 9 8 7 6 4 5 7 7 6 9 8 8 7 7 5 10 9 6 6 8 9 10 10 8 6 7 8 8 7 6 6 5 6 6 6 7 7 8 8 8 9 9 8 10 11 10 10 10
8 9 8 5 4 4 7 8 8 10 8 6 6 14 11 9 4 6 10 5 4 6 12 10 12 6 3 7 7 6 5 4 4 4 5 5 5 5 6 7 7 7 6 6 6 6 7 7 10 9 6 5 9 9 7 6 9 10 9 9 7 5 6 7 8 8 7 8 8 9 9 8 7 8 8 7 8 8 8 7 9 9 10 10 10 10
3 7 9 10 9 9 8 9 8 10 8 7 0 9 13 12 10 10 11 8 4 3 6 11 5 6 4 6 7 7 6 6 6 8 8 7 7 8 6 6 7 7 6 5 6 6 5 7 8 9 6 5 6 6 5 7 8 8 7 6 5 4 6 7 8 9 6 7 8 9 9 9 9 9 9 9 8 8 7 8 8 8 8 9 9 9
5 4 8 10 11 10 11 9 4 10 10 4 4 4 11 14 13 10 8 9 6 5 9 9 9 4 6 4 7 9 6 8 12 11 12 10 10 10 8 8 7 7 5 5 5 7 6 7 7 7 6 6 6 5 6 7 6 6 6 6 6 7 7 7 9 7 8 8 8 8 8 10 9 9 8 7 7 7 7 9 8 8 7 8 9 9
2 3 3 7 6 9 8 7 8 11 11 6 2 2 5 7 8 9 9 7 6 8 9 12 10 8 5 4 6 7 7 11 14 14 12 12 12 11 10 11 9 9 7 5 6 6 7 7 7 6 7 6 6 6 6 7 6 6 6 7 9 9 7 7 9 9 10 9 8 9 9 11 9 7 7 6 7 7 7 8 8 7 7 7 7 8
1 2 1 3 8 7 5 6 7 9 12 2 2 0 2 5 7 6 7 6 7 12 10 13 11 7 9 9 13 13 12 16 11 8 9 10 10 11 11 10 9 8 7 7 6 6 7 7 7 6 6 7 6 6 6 6 6 6 7 7 10 9 7 8 9 10 9 8 8 9 9 10 9 8 7 7 7 6 7 7 7 7 7 6 7 7
3 2 2 4 7 5 4 4 5 8 9 8 3 4 5 5 5 5 4 5 7 8 10 17 16 9 11 4 8 13 4 11 15 19 19 19 17 14 12 10 10 9 9 9 7 6 8 8 7 6 7 7 7 7 7 7 7 7 7 8 10 9 8 7 8 8 8 7 8 9 9 9 7 6 6 8 8 7 7 7 7 6 6 6 6 6
7 8 1 1 2 8 7 6 5 4 7 6 7 6 8 5 4 4 4 6 9 7 3 15 13 8 14 1 5 19 11 12 16 12 18 18 16 14 12 11 9 8 9 9 6 7 8 8 8 8 7 7 7 7 7 8 7 8 8 8 9 9 7 7 7 8 8 8 8 8 9 8 7 7 8 8 8 6 6 6 6 6 6 6 6 6
2 3 4 3 3 5 8 8 5 6 7 8 7 6 7 6 6 7 9 5 4 2 4 11 11 9 2 1 0 8 14 7 10 10 13 16 16 15 12 10 10 9 9 8 8 7 8 8 8 8 8 7 7 8 7 7 7 6 7 7 8 8 6 7 7 7 8 8 8 7 7 6 6 7 7 6 7 6 5 5 6 6 6 6 6 6
2 3 4 7 4 6 11 9 4 1 9 9 3 5 4 3 2 8 7 9 4 3 5 7 10 6 9 3 2 0 1 7 5 8 12 14 14 15 10 8 9 11 10 10 10 9 8 9 9 8 8 7 8 9 8 7 7 7 7 7 8 8 7 7 7 7 8 7 7 6 6 6 6 6 6 6 5 5 6 6 6 6 5 5 5 5
3 3 1 2 3 7 11 11 5 3 4 3 2 1 3 4 3 4 1 1 4 6 6 9 8 1 1 2 1 0 3 7 7 9 13 15 15 14 13 14 14 13 11 11 11 11 10 10 9 8 7 7 8 8 7 8 7 7 7 8 8 8 7 7 7 7 7 7 6 7 7 6 6 6 6 6 5 5 6 6 6 6 5 5 4 5
2 1 3 3 2 6 11 9 6 2 4 4 5 7 2 3 1 4 2 2 2 2 3 1 1 1 4 3 5 3 8 10 10 11 14 15 17 16 15 15 15 14 13 14 12 11 12 11 10 8 8 7 8 7 7 7 7 8 8 8 9 8 7 7 7 7 7 7 7 6 6 6 6 6 7 6 7 6 6 5 5 5 5 5 5 4
3 3 0 4 5 5 4 2 1 4 2 3 6 2 4 4 2 2 1 2 1 1 2 1 2 2 6 6 5 8 10 11 13 14 15 16 17 18 16 16 16 16 16 15 13 12 12 11 11 10 8 8 8 8 8 8 7 7 7 8 9 8 9 7 7 7 6 7 7 6 6 6 6 6 6 6 6 6 6 6 5 5 5 5 4 4
2 2 1 2 2 2 4 2 2 3 2 4 2 4 3 5 5 5 3 2 0 1 1 1 3 6 8 5 6 11 15 15 15 15 16 19 20 19 17 18 18 18 17 17 15 13 12 11 11 10 10 9 9 8 8 7 7 6 7 7 7 9 8 8 6 6 5 5 4 4 6 6 5 5 5 5 6 6 6 6 6 6 5 5 5 5
3 1 2 1 2 2 1 2 4 4 3 2 1 1 0 3 4 4 2 1 1 2 1 1 3 4 8 6 15 16 19 18 17 17 21 22 22 18 16 18 19 19 17 16 15 14 12 12 12 11 11 11 10 9 8 8 7 8 7 8 7 7 7 7 7 7 7 6 5 5 6 6 5 5 5 5 6 6 6 6 6 6 6 5 4 4
3 3 1 1 0 4 3 4 4 3 4 5 4 3 2 3 1 3 1 1 1 4 2 4 1 6 5 2 6 12 16 20 24 22 17 18 19 19 19 20 19 19 17 16 16 15 13 13 12 11 10 10 9 8 8 8 9 8 8 8 9 9 9 8 7 7 6 6 6 7 7 6 6 6 6 6 6 6 6 5 5 5 4 3 3 3
2 1 3 5 5 5 4 1 3 2 4 3 3 3 1 2 4 4 3 1 1 2 3 4 3 3 3 1 3 1 11 14 13 12 14 17 19 18 17 20 20 17 17 17 17 14 13 13 13 12 10 9 9 9 10 9 8 9 9 9 9 9 8 9 8 7 7 6 6 6 6 6 5 5 5 6 6 6 5 5 4 3 2 3 3 3
1 1 1 3 4 4 1 1 2 4 3 3 3 1 1 1 1 3 2 1 1 1 1 2 1 1 2 1 2 2 0 9 12 13 13 15 18 17 17 20 18 18 18 18 16 14 13 13 13 13 13 13 12 11 11 10 9 9 10 10 9 9 9 8 8 7 6 6 6 7 6 6 6 6 6 6 6 6 5 4 4 2 2 2 2 2
4 1 4 2 3 4 4 4 3 4 1 3 3 1 2 2 1 1 2 1 2 1 2 1 1 2 3 2 0 2 2 5 10 12 13 13 14 15 18 20 19 19 18 16 14 13 13 13 12 11 12 12 12 12 13 11 10 10 10 9 9 10 10 9 8 7 7 7 7 7 7 6 6 6 6 6 5 6 4 3 3 2 2 2 2 2
2 1 2 1 1 3 4 3 3 2 3 2 1 1 0 1 3 2 1 1 2 1 2 1 1 2 1 2 2 0 3 9 13 13 13 14 14 15 17 18 18 18 16 16 15 14 13 12 13 13 13 13 13 12 12 12 11 11 10 10 10 10 10 9 8 8 8 8 8 7 7 7 6 6 6 6 5 5 4 3 3 2 2 2 2 2
3 1 2 2 1 1 0 1 1 1 2 1 2 2 2 2 4 2 2 1 1 1 0 1 1 2 2 1 2 1 4 7 10 15 14 14 18 18 17 17 17 18 16 17 16 15 16 14 13 13 15 14 13 13 13 12 12 11 11 11 10 10 10 9 8 9 8 8 8 7 7 7 6 6 6 5 5 5 4 3 3 3 2 2 2 2
1 1 1 2 2 2 1 1 3 2 2 3 2 3 2 1 1 1 1 1 2 2 2 4 3 6 5 2 3 4 6 9 11 14 15 15 15 15 17 18 20 18 17 18 17 15 15 15 18 18 17 15 15 14 12 12 12 12 12 12 11 10 10 10 9 9 9 8 8 7 7 7 7 6 6 6 5 4 4 4 3 3 3 2 2 1
0 3 2 1 3 3 4 2 2 3 3 1 2 3 2 2 2 4 5 2 3 2 2 1 0 1 3 1 5 7 8 9 10 12 14 14 16 17 17 16 15 14 14 14 15 18 20 19 18 17 18 17 15 13 12 12 12 13 12 12 11 11 10 9 10 10 9 9 8 8 8 7 7 6 6 5 5 4 4 4 3 3 3 3 2 1
1 2 3 2 2 1 2 2 2 3 3 4 7 5 6 6 5 6 8 3 5 2 3 3 5 4 5 3 4 10 13 14 15 16 15 14 14 15 16 18 19 18 17 18 19 20 20 20 19 19 18 17 16 16 16 13 12 11 11 11 11 11 11 10 11 10 10 9 9 9 8 8 7 6 6 5 5 5 5 5 5 4 3 3 2 1
1 2 1 1 3 3 2 2 1 2 3 5 8 8 6 4 9 10 8 2 8 8 2 1 3 11 10 5 5 4 10 9 9 10 11 15 19 19 19 20 21 22 22 23 23 23 22 21 19 19 18 17 18 18 16 14 14 13 13 13 12 12 11 11 11 11 11 10 10 9 9 8 7 6 6 6 6 6 6 6 5 4 3 3 2 2
1 0 3 2 2 3 3 1 3 2 3 6 6 7 6 5 6 7 5 2 3 9 9 3 4 11 3 1 2 2 6 7 10 14 16 16 17 19 20 22 22 23 24 23 21 21 21 21 20 19 19 19 19 19 16 15 14 14 14 13 13 13 12 12 12 11 11 11 10 9 9 8 8 7 8 7 7 7 6 6 4 4 4 3 3 2
2 0 2 1 2 3 4 5 4 5 5 7 11 9 7 6 7 7 7 7 7 7 4 3 4 9 1 3 6 5 8 10 13 15 15 15 18 19 21 21 22 23 23 22 22 21 20 21 22 21 22 20 19 18 17 16 15 14 15 14 14 13 12 12 12 12 11 11 10 10 10 9 9 9 8 8 7 7 6 6 5 5 4 4 3 3
1 2 1 1 2 2 3 5 6 6 5 7 10 10 12 11 7 2 5 4 10 2 5 4 8 1 2 3 5 5 8 10 10 13 12 12 15 18 21 22 22 22 21 20 20 21 21 22 23 23 21 18 18 18 18 16 15 16 16 15 14 12 13 13 12 11 11 11 10 11 11 10 10 9 8 8 7 7 6 6 6 6 5 4 3 2
2 1 2 2 1 1 3 6 3 2 4 4 2 2 5 7 12 14 11 13 14 11 7 5 3 5 4 6 7 8 12 13 16 15 15 15 17 18 18 17 17 18 18 17 18 19 20 18 16 17 19 19 18 17 15 15 16 14 14 13 13 13 12 13 12 12 12 11 11 11 11 10 10 9 9 8 8 8 8 8 7 6 4 3 3 3
3 2 2 1 0 1 3 3 2 3 9 1 3 2 3 3 4 10 13 9 5 12 11 9 8 8 10 8 8 5 7 2 3 9 14 14 15 16 21 22 21 20 21 21 21 20 19 20 18 17 17 17 17 16 14 15 14 12 12 13 13 13 13 13 13 12 12 12 12 12 11 11 10 10 9 9 9 9 8 8 6 6 4 4 3 3
1 3 4 1 0 0 0 1 0 7 3 3 3 1 2 2 1 3 10 15 14 12 14 14 15 8 4 5 1 4 4 4 4 6 9 11 13 13 14 16 19 19 20 19 21 21 20 20 21 21 21 17 14 14 15 15 14 13 14 14 14 14 14 14 13 13 13 12 12 12 12 12 11 11 10 10 10 9 9 8 7 6 5 3 2 2
6 1 1 1 1 2 0 1 8 9 14 4 1 4 5 3 4 4 5 6 5 10 13 15 15 7 5 3 4 3 2 1 4 9 12 14 15 16 15 14 14 17 18 17 18 19 19 18 17 17 13 14 15 15 15 14 14 14 14 14 14 14 14 14 14 14 14 13 13 13 13 12 12 12 11 11 10 10 9 8 7 6 5 4 3 3
5 3 3 1 1 1 1 1 3 1 3 5 2 2 2 3 3 3 2 8 2 6 8 14 16 11 7 6 5 5 3 2 8 6 9 16 16 16 14 12 11 12 13 13 12 12 12 13 13 12 14 15 16 16 14 14 15 14 14 14 14 15 14 15 15 14 14 14 14 13 13 13 12 12 12 11 11 10 9 7 6 6 5 4 4 4
1 2 3 1 1 2 1 2 3 3 6 2 2 2 4 5 4 2 1 4 1 2 4 10 14 7 8 8 7 7 4 4 9 3 1 9 14 16 16 16 15 13 13 14 14 16 15 14 16 14 14 15 16 16 15 15 16 15 15 15 15 15 16 16 16 16 15 15 14 13 12 12 12 12 12 12 11 9 9 8 7 5 5 4 4 3
2 2 1 0 1 2 2 2 4 5 4 2 4 3 5 5 7 3 2 1 4 4 3 5 9 7 7 8 9 8 8 9 7 3 2 2 7 13 15 15 15 15 14 13 12 13 14 13 14 15 17 19 19 16 17 16 16 16 15 15 15 16 18 17 17 16 14 13 13 12 11 11 12 12 12 12 10 8 8 7 7 6 6 5 4 3
1 0 1 4 1 1 3 3 3 5 6 4 5 5 5 5 4 1 3 1 1 3 2 3 3 4 8 9 9 8 11 1 3 2 1 1 2 5 8 9 11 12 12 12 12 12 10 13 16 19 21 18 17 16 17 15 16 16 16 15 16 19 18 16 15 14 13 13 12 12 12 11 12 13 12 10 9 8 7 7 7 7 6 5 4 3
1 1 0 1 2 3 2 3 4 5 5 5 2 5 4 4 2 4 1 1 1 2 1 3 3 6 9 8 10 9 4 3 2 2 1 2 2 1 6 8 7 7 8 8 9 11 11 12 15 15 15 15 15 16 16 17 17 17 16 16 20 20 14 15 15 13 13 13 13 12 12 12 11 11 10 9 8 8 7 7 6 6 6 4 4 4
6 5 4 3 2 2 1 1 3 4 1 6 14 5 1 2 1 2 1 2 3 1 2 3 6 6 8 8 10 9 5 2 2 2 0 2 2 3 4 8 10 11 10 11 12 14 13 13 14 17 17 14 15 14 15 18 19 17 17 19 22 14 15 15 14 13 13 13 13 12 12 12 12 10 8 7 8 8 8 7 6 6 5 5 4 4
5 2 1 2 7 3 4 5 6 3 3 9 12 6 9 8 2 4 3 1 2 3 3 3 5 7 9 9 8 10 9 8 6 6 4 4 4 3 4 6 7 8 9 10 12 13 15 13 13 14 15 13 14 14 15 17 16 16 17 23 15 13 14 13 13 13 13 11 12 12 10 10 10 9 7 9 8 8 8 7 7 6 5 5 4 4
11 7 2 1 4 6 6 7 3 0 2 9 9 3 2 1 2 4 2 2 1 3 4 2 4 6 10 9 6 6 6 10 12 8 7 8 6 7 7 8 9 10 11 12 13 13 14 14 14 13 13 13 15 14 14 15 18 21 21 18 13 15 15 14 12 12 10 11 10 10 9 8 9 9 8 8 9 9 8 7 7 6 5 5 5 5
5 1 3 1 4 5 10 13 8 4 4 8 11 6 5 3 3 3 5 5 6 4 5 4 2 5 6 7 6 7 9 7 8 8 9 8 7 6 4 4 6 7 8 8 9 12 13 12 11 12 14 13 14 14 14 13 17 23 23 13 13 14 13 11 13 14 12 10 9 10 12 12 8 8 8 9 7 7 7 8 8 6 6 6 5 5
3 4 2 4 2 2 7 3 7 13 7 11 11 12 9 9 8 5 3 8 8 4 5 6 4 3 5 5 8 8 9 7 8 7 6 6 8 9 8 9 8 9 11 12 14 12 10 10 12 13 13 15 15 13 13 17 15 17 11 13 11 10 11 15 15 15 12 11 10 10 11 11 9 8 8 8 7 6 6 6 6 6 6 6 6 5
2 6 4 7 1 6 10 2 4 2 6 5 6 9 12 13 12 11 12 9 7 4 5 7 5 6 5 7 10 10 11 9 8 9 7 8 9 9 8 9 9 9 11 11 10 11 10 13 12 14 14 15 14 13 13 12 13 14 10 7 10 13 14 15 16 13 11 13 10 10 11 10 14 12 8 9 8 8 6 6 6 7 8 8 7 7
4 8 5 5 6 9 13 19 19 14 15 16 14 12 11 10 8 8 10 10 8 11 12 11 10 9 8 11 7 8 9 10 10 10 9 8 7 7 8 10 10 11 9 10 11 13 15 14 16 16 17 15 12 12 15 16 15 14 14 12 12 14 16 15 16 14 11 10 9 9 9 10 9 9 9 8 7 6 7 8 8 8 5 5 4 5
7 7 4 2 4 7 11 12 7 3 4 7 9 15 16 16 13 13 9 8 10 13 11 11 12 10 10 9 9 9 13 10 8 8 10 10 9 8 8 8 8 9 10 9 9 11 13 14 15 15 16 13 9 13 15 15 14 13 13 12 12 14 17 16 13 11 10 9 10 9 10 8 8 7 7 8 8 7 4 2 5 6 6 5 6 9
12 11 10 9 9 12 17 18 7 6 8 13 9 4 7 6 8 11 11 11 11 13 10 10 12 10 12 13 11 11 13 11 11 9 10 10 10 8 8 8 8 8 10 8 9 11 12 12 14 14 16 13 9 13 15 14 14 13 13 13 13 16 16 16 11 9 9 10 9 11 10 9 9 9 8 7 7 7 7 5 5 11 11 7 9 10
Wind_Direction
328 224 216 221 236 190 201 220 254 339 8 332 302 273 262 248 239 48 54 123 115 90 52 73 102 112 99 74 95 118 109 106 125 126 131 121 105 109 111 100 86 72 69 76 65 59 58 51 44 42 47 55 49 37 30 26 19 18 25 35 44 26 30 47 38 61 86 91 88 77 68 72 68 63 60 56 50 48 45 41 41 41 40 37 39 36
251 241 239 241 82 94 224 233 254 273 274 279 271 259 250 245 249 97 136 160 350 124 114 105 92 67 66 63 60 96 120 123 134 132 135 138 131 117 111 108 98 106 88 63 66 59 52 52 55 52 47 44 49 40 40 30 12 23 29 33 40 33 28 51 61 70 67 66 71 79 74 76 68 61 58 60 54 49 46 43 41 40 39 40 40 38
222 234 254 110 199 199 223 203 218 236 242 240 248 250 250 242 252 26 162 45 334 103 141 147 117 74 59 62 57 63 71 60 90 148 149 151 148 137 130 119 126 127 100 74 68 68 64 54 55 52 54 52 52 46 50 31 15 27 35 27 30 36 31 35 49 64 74 76 74 81 83 80 79 67 68 69 65 60 55 48 45 42 40 39 42 40
242 241 244 200 163 186 203 208 204 215 226 232 228 234 237 232 221 215 189 40 354 267 153 163 122 107 103 85 64 48 79 93 87 104 146 172 160 152 146 141 135 128 133 113 91 81 56 54 49 55 47 40 57 52 44 42 12 28 33 29 32 34 36 46 63 73 78 86 87 83 83 78 82 87 79 74 69 64 59 52 46 42 38 38 43 40
242 38 9 198 211 217 217 195 203 211 221 218 231 235 243 228 221 281 165 87 56 47 137 127 98 123 200 206 162 112 111 117 129 125 135 148 153 147 138 139 139 142 134 126 118 102 98 63 48 50 57 43 43 64 51 35 22 34 40 31 25 25 26 42 51 71 97 97 92 92 94 94 89 81 78 77 66 60 58 57 46 40 39 40 42 42
253 239 42 122 166 212 221 221 217 216 231 220 222 227 233 231 166 101 126 127 102 133 185 147 171 231 168 214 195 160 173 158 159 156 171 154 150 154 156 151 147 139 138 119 110 107 106 109 86 56 51 58 57 57 56 43 34 40 44 46 34 20 17 38 56 53 49 57 88 102 101 97 86 74 60 58 60 57 56 56 56 48 41 42 42 41
258 239 217 229 230 213 222 239 223 215 235 224 227 206 221 230 166 155 162 167 193 195 208 249 209 193 141 206 196 178 184 206 192 201 195 188 187 182 168 157 152 145 140 133 114 111 104 93 96 81 58 48 55 56 60 59 53 46 40 50 56 36 23 19 41 59 72 66 66 73 76 82 88 91 75 74 70 71 66 66 62 56 47 42 43 42
189 228 224 230 236 234 232 236 225 217 226 238 351 181 201 209 199 186 175 197 243 355 161 194 218 230 196 201 174 175 176 203 220 217 202 205 198 194 186 174 160 160 161 143 127 115 104 98 96 98 93 70 75 84 75 71 66 61 59 57 61 63 55 38 32 43 57 84 82 85 84 81 81 81 87 79 76 73 73 72 65 63 57 49 45 44
189 186 208 217 221 231 234 234 206 204 220 246 15 274 211 206 204 183 193 210 232 218 181 206 223 248 214 126 136 166 177 218 225 213 208 199 198 195 192 185 176 172 158 157 143 135 129 112 104 113 115 112 106 92 86 79 83 87 84 70 60 56 52 49 52 51 49 64 75 84 85 85 79 84 84 85 83 81 78 77 72 70 66 60 52 45
273 239 225 230 230 230 234 217 182 192 217 236 309 341 295 242 210 186 201 213 229 241 197 201 196 203 201 135 155 187 222 221 215 205 201 197 191 190 188 186 180 169 163 156 146 137 126 113 114 115 113 107 99 100 86 83 81 81 74 66 63 57 49 50 56 57 55 58 69 74 79 90 92 92 93 90 90 87 83 79 74 71 66 60 56 49
13 339 300 206 224 239 239 213 190 205 225 3 350 304 265 220 208 200 224 217 235 235 212 183 196 233 220 185 190 173 212 198 173 170 191 189 192 192 190 184 179 173 169 165 152 140 123 119 121 126 124 120 111 101 100 90 83 72 69 69 67 64 55 52 62 67 63 59 65 78 85 90 96 96 101 102 91 88 87 82 77 73 67 59 54 49
231 192 214 226 241 238 246 207 220 224 227 232 250 219 214 203 192 203 218 210 232 244 201 175 189 212 225 163 208 216 97 165 164 187 183 186 185 183 182 181 179 177 170 165 155 143 133 129 132 136 132 131 121 110 103 98 90 86 84 82 80 72 69 67 71 76 77 78 79 82 83 86 89 96 97 95 92 84 82 81 80 76 72 65 59 52
244 232 218 346 221 210 199 223 203 215 222 226 231 239 201 180 160 210 219 209 227 246 166 166 168 190 231 271 220 198 197 186 194 190 185 173 169 167 175 176 171 167 166 165 154 153 151 149 151 150 144 136 123 116 113 107 101 97 94 91 94 91 89 87 85 84 87 86 83 86 87 88 87 87 87 86 88 79 79 77 76 74 71 66 58 48
259 98 126 214 165 213 213 200 168 199 208 203 216 230 200 186 170 216 209 235 223 345 320 171 172 223 194 187 219 184 192 187 184 175 163 166 169 169 169 172 174 168 169 161 162 168 166 159 159 155 154 141 130 123 120 114 110 107 106 103 102 103 100 100 96 93 90 85 84 86 91 92 92 88 84 83 84 82 79 78 73 69 68 65 60 51
238 181 183 159 209 161 205 226 190 276 175 207 219 247 211 262 193 209 193 202 187 165 149 180 156 209 175 161 18 287 163 161 158 155 154 158 156 161 172 169 166 170 167 166 171 177 172 163 162 162 155 146 137 133 129 127 124 122 118 116 116 115 111 108 104 101 95 91 88 87 87 90 91 90 90 85 83 86 86 78 75 72 68 69 62 56
265 315 210 241 25 166 198 215 235 162 211 177 192 242 250 248 113 265 294 242 145 141 143 172 188 24 275 102 141 100 176 144 134 137 147 159 164 166 163 176 180 180 176 176 173 175 173 168 164 160 155 146 140 135 133 133 134 130 129 129 127 120 117 109 103 95 96 92 91 89 91 93 96 99 99 97 91 86 83 80 80 77 71 66 65 56
174 283 108 176 231 199 209 188 204 252 197 172 168 208 193 96 315 277 233 267 295 197 85 24 297 196 121 139 107 159 148 154 155 161 165 166 168 170 176 178 179 179 180 180 179 174 173 168 165 161 155 150 143 140 143 142 141 139 137 134 129 123 113 108 102 101 99 100 98 94 95 98 99 99 100 101 99 93 88 86 81 78 73 67 57 51
323 45 13 158 221 219 272 337 86 190 339 137 216 201 105 82 70 271 317 294 54 24 76 49 216 172 158 207 141 157 174 166 173 174 176 173 172 179 181 178 178 182 183 181 176 174 174 172 165 159 157 153 148 142 142 143 141 140 138 136 131 130 123 118 116 113 112 113 108 107 106 102 104 104 104 104 104 99 94 89 82 77 71 58 53 50
279 154 118 227 207 71 94 182 176 255 197 251 291 329 225 217 206 206 266 146 47 22 56 174 321 278 234 208 150 188 187 183 180 173 172 178 182 185 179 176 179 181 182 182 178 174 176 172 168 162 156 150 143 137 139 139 141 141 139 137 135 131 130 127 125 124 123 124 121 121 118 117 111 108 105 102 99 95 89 82 79 74 67 63 51 42
275 295 121 242 179 113 151 185 234 175 176 215 285 277 79 312 297 178 260 315 199 89 53 134 41 241 204 230 189 192 191 181 172 176 188 186 183 179 176 175 181 183 183 181 179 177 175 171 167 162 158 154 151 148 147 149 149 149 145 142 135 129 129 132 133 136 133 132 132 130 125 117 114 111 109 103 99 94 86 78 77 74 64 55 47 45
318 344 141 66 74 162 198 196 231 195 189 189 203 207 139 243 307 317 323 306 256 156 203 118 214 252 230 357 184 199 183 180 179 185 182 181 180 180 177 178 182 182 181 179 180 179 172 169 164 161 159 152 148 149 154 161 161 157 152 149 146 145 145 144 144 142 140 137 135 134 126 121 116 111 105 100 94 92 86 85 78 73 72 67 65 47
238 259 126 146 165 216 193 105 340 268 294 282 248 240 227 232 199 195 184 156 324 234 171 157 191 250 71 254 11 351 188 185 188 169 168 172 175 175 175 182 181 180 180 179 180 176 168 167 164 160 157 156 156 161 166 167 165 163 162 157 153 151 152 150 151 149 145 142 139 134 128 121 117 113 111 108 102 96 100 92 86 85 90 87 62 51
269 276 131 164 195 216 243 143 227 272 269 285 300 241 195 218 281 274 187 113 225 23 300 302 286 96 74 16 348 340 246 183 179 175 168 171 172 170 175 180 179 182 181 182 177 173 170 167 167 166 165 166 167 168 169 171 172 170 165 161 162 159 159 158 153 150 148 143 142 138 134 134 130 126 120 114 108 107 107 105 105 96 87 75 71 59
178 225 147 212 231 245 211 162 174 216 230 239 196 222 229 225 349 329 339 336 291 159 210 181 258 53 99 86 196 280 278 188 169 171 162 159 161 164 165 175 180 181 184 178 176 171 168 164 162 161 166 170 174 177 179 177 175 172 168 166 165 167 162 159 155 154 151 150 147 147 144 140 135 130 128 120 118 119 116 119 117 108 99 94 87 71
250 150 284 180 187 181 168 172 196 205 229 239 269 135 233 165 214 190 133 198 238 180 332 263 190 98 82 35 18 118 181 180 167 171 162 159 166 167 167 178 183 183 179 177 173 168 159 160 166 173 176 180 181 180 180 181 178 173 171 169 171 169 165 160 159 159 161 158 152 151 147 142 141 138 133 128 129 128 128 133 135 140 140 121 103 73
290 164 189 255 197 180 145 310 23 129 204 208 207 219 177 219 169 202 274 129 287 83 74 241 260 102 109 4 80 105 163 169 172 171 170 169 167 168 174 179 182 186 180 175 171 166 171 174 177 180 184 185 183 182 184 181 177 175 172 174 173 168 166 165 164 168 166 163 156 153 151 147 146 147 145 143 140 144 149 152 157 153 135 108 83 72
284 315 288 259 270 278 332 30 86 303 248 239 182 239 199 155 353 327 322 266 290 133 214 240 302 322 323 150 236 181 182 173 169 171 172 170 170 172 172 178 185 184 178 178 176 176 174 180 188 190 186 186 186 185 182 179 177 176 175 175 173 169 166 168 171 173 171 167 162 160 160 159 161 157 157 157 154 155 162 165 159 147 129 108 99 89
282 251 130 183 268 298 333 325 326 314 266 285 221 228 178 189 182 206 213 255 104 161 246 137 217 236 301 206 187 189 189 184 180 176 174 173 173 173 174 175 177 180 179 178 182 184 187 189 189 187 189 190 188 183 180 181 180 178 176 173 171 170 170 174 175 175 174 171 171 171 169 168 162 161 162 159 160 167 166 168 163 154 145 147 142 132
0 291 63 335 286 29 258 306 306 295 262 298 290 273 211 199 186 194 234 222 196 249 277 123 180 217 267 226 194 191 187 188 186 184 182 174 166 166 168 173 179 184 183 185 190 191 191 191 190 189 190 191 185 185 185 181 179 176 174 172 172 174 178 175 175 178 177 177 180 177 173 168 164 164 160 164 169 173 182 181 175 166 160 148 138 136
252 255 243 266 296 245 221 230 187 281 294 283 270 265 276 219 218 226 245 225 216 243 328 196 220 248 262 255 198 202 180 179 173 169 168 172 178 176 179 182 185 187 187 190 192 192 192 192 189 189 188 188 189 188 185 182 181 178 176 177 177 178 178 174 180 180 181 184 183 177 173 170 167 166 166 174 183 190 188 184 174 164 152 145 153 187
317 32 64 301 284 274 209 210 202 232 222 277 258 240 238 242 269 263 273 274 328 288 260 230 295 287 273 316 141 82 144 141 153 173 182 182 178 180 184 190 192 194 195 194 193 192 191 191 190 189 190 191 190 188 185 184 181 179 181 179 178 179 177 178 180 183 185 186 184 177 173 172 171 172 179 185 191 192 188 181 173 164 159 166 181 199
320 109 73 27 296 292 28 351 342 337 304 273 286 263 221 197 248 217 216 202 192 221 115 144 260 252 107 80 84 127 152 169 180 183 182 188 187 186 191 195 197 198 197 196 195 192 191 191 191 191 192 191 189 186 185 184 180 178 184 181 179 178 175 179 182 184 186 187 182 178 177 179 178 180 183 188 192 192 189 181 176 173 172 180 186 200
32 141 127 46 275 267 357 355 338 324 300 289 259 248 218 200 219 279 249 244 227 162 161 196 238 65 132 140 139 151 178 186 194 193 191 195 197 197 199 199 200 201 200 196 193 193 194 193 194 193 190 187 187 188 188 179 175 183 183 180 178 171 175 180 183 184 185 187 183 181 184 183 181 182 183 190 193 193 191 187 181 177 177 182 178 203
161 172 113 210 224 283 324 317 300 300 268 253 84 157 314 235 202 208 224 211 212 185 220 219 246 137 157 179 191 175 181 201 200 200 192 185 186 197 207 210 210 207 205 202 200 198 197 196 195 195 192 190 189 187 179 178 182 184 180 175 169 173 175 179 184 185 188 186 186 185 185 184 182 182 186 189 195 196 196 191 185 173 169 168 182 206
171 120 114 188 223 269 330 307 303 253 245 164 140 142 125 346 19 244 279 295 232 219 250 273 246 218 208 196 206 198 190 32 213 191 194 198 193 192 195 200 202 201 200 199 200 201 198 196 194 190 189 191 188 180 174 183 184 173 171 170 171 177 178 184 183 187 189 188 187 186 185 185 183 184 189 192 196 198 199 192 175 166 168 175 191 208
251 139 151 104 129 137 162 88 92 242 233 272 297 341 341 88 105 5 285 257 241 222 226 245 250 225 181 218 300 28 8 336 323 253 227 213 207 204 203 207 205 201 202 202 199 199 195 194 193 191 193 187 176 179 182 183 176 172 176 174 178 179 183 183 186 188 189 190 188 188 188 184 183 187 190 193 195 199 198 188 175 165 161 169 195 210
284 355 246 129 262 211 179 182 246 323 319 354 358 171 185 208 169 190 259 267 186 215 199 232 249 236 151 125 133 101 54 354 276 256 218 219 215 217 215 214 206 206 208 207 203 204 201 198 195 194 182 178 183 180 186 180 175 177 174 177 182 180 183 185 189 191 190 192 189 190 187 184 184 188 192 192 194 197 196 182 167 162 156 175 200 213
263 280 307 236 222 164 206 273 308 307 267 277 189 77 210 23 76 52 74 287 169 256 220 216 230 218 145 129 131 135 148 284 267 252 179 197 208 215 219 224 218 214 209 207 202 201 193 192 191 186 183 182 184 187 181 176 173 175 175 179 181 182 186 188 193 192 192 192 191 188 184 184 184 188 191 193 196 196 190 177 161 160 161 183 199 213
319 254 298 282 122 122 128 185 218 202 244 172 166 159 179 160 132 189 178 286 305 257 267 224 235 218 155 150 146 148 173 224 252 92 194 185 193 200 209 215 216 216 211 205 196 198 193 189 187 185 181 187 191 188 178 175 174 176 183 182 184 187 189 192 192 193 193 192 189 185 181 181 184 189 191 193 196 191 181 173 164 155 162 182 200 211
9 347 345 143 166 230 138 168 237 205 249 119 172 173 168 151 147 167 319 305 10 360 310 213 223 192 149 142 149 180 187 227 247 63 46 221 203 196 200 204 203 206 209 206 201 196 193 180 170 186 190 195 196 179 175 174 178 187 187 186 185 190 195 192 193 195 191 187 183 179 178 179 184 190 191 192 190 184 178 160 152 159 166 180 193 198
240 178 9 236 228 194 210 269 320 276 251 214 178 140 139 177 219 200 211 81 318 317 281 228 211 146 139 149 173 194 226 229 75 82 30 233 151 212 215 216 209 202 201 195 197 181 177 180 186 194 195 196 186 172 176 174 182 192 191 187 190 200 196 187 188 189 183 182 178 178 179 178 185 188 189 188 182 175 164 159 161 161 170 179 186 184
308 113 31 55 206 194 195 229 267 282 252 126 36 125 161 156 173 202 109 107 257 316 120 219 181 165 164 174 189 226 228 93 127 30 98 163 195 177 209 208 206 200 206 197 176 174 190 185 193 197 197 191 179 173 176 176 187 194 191 192 204 201 181 181 187 182 178 179 180 178 178 180 184 184 182 178 166 164 163 159 156 162 164 177 175 182
174 161 198 180 147 56 58 286 347 297 31 115 123 109 185 211 253 85 252 196 202 281 196 187 193 183 180 196 213 228 241 227 221 246 187 188 208 212 193 193 198 198 194 187 189 192 187 190 193 197 194 183 177 174 179 180 191 193 193 203 208 183 176 184 183 178 179 179 177 177 178 181 176 172 170 165 167 161 158 151 151 152 157 164 169 177
167 223 198 232 193 153 177 177 205 237 74 179 165 168 199 219 64 176 154 230 177 217 211 185 208 198 200 204 199 222 231 246 259 229 236 230 217 203 206 209 207 205 199 199 194 186 187 196 194 196 194 185 179 178 180 181 191 194 199 211 193 172 178 180 178 173 175 171 177 175 174 170 167 171 164 162 163 160 149 155 154 157 167 170 176 185
194 211 190 186 176 181 199 216 224 1 211 214 252 3 319 172 163 182 202 224 210 223 193 243 214 187 207 216 228 217 226 224 231 220 212 229 196 203 199 203 201 201 199 195 199 190 192 199 194 191 190 187 180 182 182 188 194 201 209 209 169 176 176 175 170 168 170 172 175 172 168 160 168 169 163 162 162 161 158 150 155 164 171 167 190 195
357 49 74 46 238 275 270 237 254 212 182 247 263 265 279 291 269 206 227 250 228 204 180 211 198 196 200 209 218 235 225 226 217 224 225 231 225 216 209 208 215 211 208 197 192 187 196 199 194 189 193 191 185 186 187 189 195 205 214 189 179 180 172 167 175 183 185 177 175 170 156 157 163 162 158 159 170 164 164 159 165 169 166 176 191 191
199 150 159 230 292 19 271 105 203 239 202 209 230 254 254 238 238 196 234 230 248 184 208 239 230 203 196 186 205 227 233 230 234 235 224 230 225 223 205 210 207 201 198 199 204 186 189 193 197 198 191 195 191 188 188 198 201 209 194 182 172 161 165 180 184 188 185 177 176 163 157 164 166 166 164 167 168 166 160 161 166 165 170 180 184 185
253 174 195 223 163 214 246 176 224 186 239 236 236 241 245 250 248 227 227 241 244 230 216 229 202 236 188 210 211 219 237 228 220 235 229 222 222 218 209 210 209 204 212 207 191 181 188 196 198 200 194 202 195 190 189 192 201 204 194 176 176 179 178 183 188 183 177 176 166 163 168 172 173 167 164 174 167 164 166 171 175 179 187 185 185 180
125 140 218 168 211 256 292 276 264 275 281 260 233 225 234 235 239 246 230 235 235 240 235 227 208 221 188 224 194 216 238 240 220 226 230 232 223 219 214 213 211 212 202 193 191 187 196 197 203 204 201 206 191 184 195 204 205 202 201 196 181 175 179 186 188 190 177 162 159 165 168 170 158 175 166 163 173 178 173 171 178 186 190 189 171 184
119 218 149 114 239 246 230 251 111 182 243 257 218 227 224 225 226 245 242 225 223 227 232 228 234 221 231 232 218 212 230 236 217 222 241 241 235 225 218 221 218 214 215 207 193 200 209 208 205 203 206 210 177 185 199 205 202 199 196 187 180 176 183 185 182 181 173 165 170 164 165 167 168 171 166 164 169 161 156 176 191 184 177 180 188 199
206 194 151 207 210 237 239 246 211 247 292 273 280 201 201 198 194 220 225 231 236 233 225 222 242 229 220 230 215 220 231 233 230 199 233 244 237 228 228 224 218 218 222 195 191 207 210 209 207 208 211 207 183 194 201 204 200 196 193 187 181 182 185 179 174 169 170 172 174 173 169 161 168 175 176 170 158 161 157 160 198 212 211 194 179 195